Location: Guayaquil
(2.1667°S, 79.9000°W)
Time: 18:32:06
(UTC-05:00)

N. Korean satellite - Visible Passes

Search period start: 15 February 2019 00:00
Search period end: 25 February 2019 00:00
Orbit: 457 x 510 km, 97.2° (Epoch: 14 February)

Date Brightness Start Highest point End Pass type
(mag) Time Alt. Az. Time Alt. Az. Time Alt. Az.
17 Feb 8.5 05:46:49 10° NE 05:49:55 33° E 05:53:04 10° SSE visible
17 Feb 10.8 19:08:42 10° WSW 19:09:44 11° WSW 19:10:45 10° W visible
18 Feb 10.1 05:23:35 10° ENE 05:25:16 13° ESE 05:26:57 10° SE visible
20 Feb 6.6 06:05:39 10° NNE 06:09:04 79° E 06:12:31 10° S visible
21 Feb 8.9 05:41:27 10° NE 05:44:23 27° ESE 05:47:23 10° SSE visible
21 Feb 10.4 19:02:25 10° SW 19:04:14 13° WSW 19:06:03 10° WNW visible
22 Feb 10.4 05:18:51 10° E 05:19:44 11° ESE 05:20:37 10° ESE visible
24 Feb 7.1 06:00:06 10° NNE 06:03:29 62° E 06:06:56 10° S visible
